Hoquiam, WA
on Wednesday, January 2, 2013

Wednesday
Previous Day Next Day
Daily Summary
 ActualAverageRecord
Temperature
Mean Temperature °F 42°F  
Max Temperature 46°F 46°F 56°F (2001)
Min Temperature 33°F 37°F 20°F (1959)
Degree Days
Heating Degree Days 26 23  
Month to date heating degree days 46  
Cooling Degree Days 0 0  
Month to date cooling degree days 0  
Year to date cooling degree days 0  
Moisture
Dew Point 31°F   
Average Humidity 78    
Maximum Humidity 92    
Minimum Humidity 56    
Precipitation
Precipitation 0.00 in 0.34 in 1.81 in (1954)
Month to date precipitation 0.68  
Year to date precipitation 0.68  
Wind
Wind Speed 12 mph   
Max Wind Speed 15 mph   
Max Gust Speed mph   
Visibility 10 miles   
Events     

Key: T is trace of precipitation, MM is missing value
Source: NWS Daily Summary
Time(PST)TemperatureDew PointHumidity Pressure Visibility Wind DirectionWind SpeedGust SpeedPrecipitationEvents Conditions
12:53 AM 34.0°F 32.0°F 92% 30.28 in 10.0 miles ENE 12.7 mph - N/A   Clear
1:53 AM 35.1°F 33.1°F 92% 30.27 in 10.0 miles ENE 12.7 mph - N/A   Clear
2:53 AM 34.0°F 32.0°F 92% 30.28 in 10.0 miles ENE 9.2 mph - N/A   Clear
3:53 AM 35.1°F 32.0°F 89% 30.26 in 10.0 miles East 13.8 mph - N/A   Clear
4:53 AM 34.0°F 30.9°F 89% 30.26 in 10.0 miles ENE 13.8 mph - N/A   Clear
5:53 AM 35.1°F 32.0°F 89% 30.25 in 10.0 miles ENE 12.7 mph - N/A   Clear
6:53 AM 33.8°F 30.2°F 87% 30.23 in 10.0 miles ENE 15.0 mph - N/A   Clear
7:53 AM 34.0°F 30.0°F 85% 30.23 in 10.0 miles ENE 15.0 mph - N/A   Clear
8:53 AM 35.1°F 30.0°F 82% 30.25 in 10.0 miles ENE 12.7 mph - N/A   Clear
9:53 AM 37.9°F 30.0°F 73% 30.26 in 10.0 miles ENE 12.7 mph - N/A   Clear
10:53 AM 39.9°F 33.1°F 77% 30.26 in 10.0 miles East 11.5 mph - N/A   Clear
11:53 AM 44.1°F 30.0°F 58% 30.24 in 10.0 miles ENE 13.8 mph - N/A   Clear
12:53 PM 45.0°F 32.0°F 60% 30.23 in 10.0 miles East 13.8 mph - N/A   Clear
1:53 PM 46.0°F 33.1°F 61% 30.22 in 10.0 miles ENE 10.4 mph - N/A   Clear
2:53 PM 46.4°F 32.0°F 57% 30.21 in 10.0 miles ENE 8.1 mph - N/A   Clear
3:53 PM 45.0°F 30.0°F 56% 30.21 in 10.0 miles NE 10.4 mph - N/A   Clear
4:53 PM 41.0°F 30.0°F 65% 30.21 in 10.0 miles NE 8.1 mph - N/A   Clear
5:53 PM 39.0°F 30.0°F 70% 30.19 in 10.0 miles ENE 8.1 mph - N/A   Clear
6:53 PM 37.0°F 32.0°F 82% 30.19 in 10.0 miles East 10.4 mph - N/A   Clear
7:53 PM 35.6°F 30.2°F 81% 30.17 in 10.0 miles ENE 12.7 mph - N/A   Clear
8:53 PM 34.0°F 30.0°F 85% 30.16 in 10.0 miles East 9.2 mph - N/A   Clear
9:53 PM 34.0°F 30.9°F 89% 30.16 in 10.0 miles East 9.2 mph - N/A   Clear
10:53 PM 33.1°F 30.0°F 89% 30.17 in 10.0 miles ENE 5.8 mph - N/A   Clear
11:53 PM 34.0°F 28.9°F 82% 30.16 in 10.0 miles ENE 10.4 mph - N/A   Clear
Moon Phase
Jan. 02 Jan. 04 Jan. 11 Jan. 18 Jan. 26
Sunrise:08:01 AM (PST) Moon Rise:10:41 PM (PST)1/2
Sunset:04:38 PM (PST) Moon Set:10:24 AM (PST)1/2

Copyright © 2014 The Weather Underground, Inc.